Tracking 30918 objects as of 2-Jul-2025
HD Live streaming from Space Station
objects crossing your sky now

STARLINK-31046

Track STARLINK-31046 now!
10-day predictions
STARLINK-31046 is classified as:


NORAD ID: 58552
Int'l Code: 2023-192X
Perigee: 481.5 km
Apogee: 483.3 km
Inclination: 53.2 °
Period: 94.1 minutes
Semi major axis: 6853 km
RCS: Unknown
Launch date: December 8, 2023
Source: United States (US)
Launch site: AIR FORCE WESTERN TEST RANGE (AFWTR)
Your satellite tracking list
NOAA 16 DEB
Track 1 satellite(s)




NASA's NSSDC Master Catalog

Two Line Element Set (TLE):
1 58552U 23192X   25182.64127598  .00000154  00000-0  17320-4 0  9999
2 58552  53.1603 149.1945 0001260  80.4712 279.6431 15.30188563 87545
Source of the keplerian elements: AFSPC